SCP
-0 -0 -0 -0 0 0 0 0 0 0 0 0 0 0 0 0 0 0 0 0 0 0 0 0 0 0 0 0 0 0 0 0 0 0 0 0 0 0 0 0 0 0 0
-0 -0 -0 0 0 0 0 0 0 0 0 0 0 0 0 0 0 0 0 0 0 0 0 0 0 0 0 0 0 0 0 0 0 0 0 0 0 0 0 0 0 0 0
-0 -0 -0 0 0 0 0 0 0 0 0 0 0 0 0 0 0 0 0 0 0 0 0 0 0 0 0 0 0 0 0 0 0 0 0 0 0 0 0 0 0 0 0
0 0 0 0 0 0 0 0 0 0 0 0 0 0 0 0 0 0 0 0 0 0 0 0 0 0 0 0 0 0 0 0 0 0 0 0 0 0 0 0 0 0 0
0 0 0 0 0 0 0 0 0 0 0 0 0 0 0 0 0 0 0 0 0 0 0 0 0 0 0 0 0 0 0 0 0 0 0 0 0 0 0 0 0 0 0
0 0 0 0 0 0 0 0 0 0 0 0 0 0 0 0 0 0 0 0 0 0 0 0 0 0 0 0 0 0 0 0 0 0 0 0 0 0 0 0 0 0 0
0 0 0 0 0 0 0 0 0 0 0 0 0 0 0 0 0 0 0 0 0 0 0 0 0 0 0 0 0 0 0 0 0 0 0 0 0 0 0 0 0 0 0
0 0 0 0 0 0 0 0 0 0 0 0 0 0 0 0 0 0 0 0 0 0 0 0 0 0 0 0 0 0 0 0 0 0 0 0 0 0 0 0 0 0 0
0 0 0 0 0 0 0 0 0 0 0 0 0 0 0 0 0 0 0 0 0 0 0 0 0 0 0 0 0 0 0 0 0 0 0 0 0 0 0 0 0 0 0
0 0 0 0 0 0 0 0 0 0 0 0 0 0 0 0 0 0 0 0 0 0 0 0 0 0 0 0 0 0 0 0 0 0 0 0 0 0 0 0 0 0 0
0 0 0 0 0 0 0 0 0 0 0 0 0 0 0 0 0 0 0 0 0 0 0 0 0 0 0 0 0 0 0 0 0 0 0 0 0 0 0 0 0 0 0
0 0 0 0 0 0 0 0 0 0 0 0 0 0 0 0 0 0 0 0 0 0 0 0 0 0 0 0 0 0 0 0 0 0 0 0 0 0 0 0 0 0 0
0 0 0 0 0 0 0 0 0 0 0 0 0 0 0 0 0 0 0 0 0 0 0 0 0 0 0 0 0 0 0 0 0 0 0 0 0 0 0 0 0 0 0
0 0 0 0 0 0 0 0 0 0 0 0 0 0 0 0 0 0 0 0 0 0 0 0 0 0 0 0 0 0 0 0 0 0 0 0 0 0 0 0 0 0 0
0 0 0 0 0 0 0 0 0 0 0 0 0 0 0 0 0 0 0 0 0 0 0 0 0 0 0 0 0 0 0 0 0 0 0 0 0 0 0 0 0 0 0
0 0 0 0 0 0 0 0 0 0 0 0 0 0 0 0 0 0 0 0 0 0 0 0 0 0 0 0 0 0 0 0 0 0 0 0 0 0 0 0 0 0 0
0 0 0 0 0 0 0 0 0 0 0 0 0 0 0 0 0 0 0 0 0 0 0 0 0 0 0 0 0 0 0 0 0 0 0 0 0 0 0 0 0 0 0
0 0 0 0 0 0 0 0 0 0 0 0 0 0 0 0 0 0 0 0 0 0 0 0 0 0 0 0 0 0 0 0 0 0 0 0 0 0 0 0 0 0 0
0 -0 0 0 0 0 0 0 0 0 0 0 0 0 0 0 0 0 0 0 0 0 0 0 0 0 0 0 0 0 0 0 0 0 0 0 0 0 0 0 0 0 0
-0 -0 0 0 0 0 0 0 0 0 0 0 0 0 0 0 0 0 0 0 0 0 0 0 0 0 0 0 0 0 0 0 0 0 0 0 0 0 0 0 0 0 0
0 0 0 0 0 0 0 0 0 0 0 0 0 0 0 0 0 0 0 0 0 0 0 0 0 0 0 0 0 0 0 0 0 0 0 0 0 0 0 0 0 0 0
0 0 0 0 -0 0 0 0 0 0 0 0 0 0 0 0 0 0 0 0 0 0 0 0 0 0 0 0 0 0 0 0 0 0 0 0 0 0 0 0 0 0 0
0 0 0 0 -0 0 0 0 0 0 0 0 0 0 0 0 0 0 0 0 0 0 0 0 0 0 0 0 0 0 0 0 0 0 0 0 0 0 0 0 0 0 0
0 0 0 0 0 -0 0 0 0 0 0 0 0 0 0 0 0 0 0 0 0 0 0 0 0 0 0 0 0 0 0 0 0 0 0 0 0 0 0 0 0 0 0
0 0 0 0 0 0 -0 -0 0 0 0 0 0 0 0 0 0 0 0 0 0 0 0 0 0 0 0 0 0 0 0 0 0 0 0 0 0 0 0 0 0 0 0
0 0 0 0 0 0 -0 -0 0 0 0 0 0 0 0 0 0 0 0 0 0 0 0 0 0 0 0 0 0 0 0 0 0 0 0 0 0 0 0 0 0 0 0
Wind_Speed
2 3 6 7 8 8 8 9 9 9 8 9 9 9 8 8 7 7 6 6 5 5 5 5 5 5 5 6 6 6 6 6 6 6 6 6 6 6 6 7 7 5 8
4 3 7 8 8 8 8 8 8 8 8 8 8 7 7 7 6 6 6 5 5 4 4 4 4 4 5 5 5 5 5 5 5 6 6 6 6 6 6 7 7 4 8
4 3 5 7 8 8 7 7 7 8 7 7 7 7 7 7 6 6 5 5 5 4 3 3 4 4 4 4 4 5 5 5 5 6 5 3 3 5 6 6 6 6 7
5 3 4 7 7 8 8 7 7 7 7 7 7 6 6 6 6 5 5 5 4 4 4 3 3 3 3 3 3 4 4 4 4 5 3 2 2 5 5 5 6 6 6
3 2 3 7 7 7 7 7 7 7 7 7 7 7 6 6 6 6 5 5 4 4 4 3 3 2 2 2 3 4 4 4 5 5 3 2 2 3 5 5 5 5 6
2 1 2 6 6 7 7 7 7 7 7 7 7 7 7 6 6 6 6 6 5 5 4 4 3 2 1 1 2 3 4 4 5 3 2 1 1 3 5 5 5 5 6
3 3 3 1 3 5 6 7 7 7 7 7 7 7 7 7 7 7 7 7 6 6 5 4 4 3 2 1 1 2 3 3 3 2 1 1 0 3 5 5 5 5 6
5 4 4 4 3 3 4 6 7 8 8 9 9 9 8 8 8 8 8 7 7 6 6 5 5 4 3 2 1 1 2 2 3 2 1 1 2 3 4 5 5 6 6
5 5 4 4 4 5 5 5 6 8 9 9 9 10 10 9 9 9 9 8 8 7 7 6 6 5 4 3 2 2 1 1 2 1 2 1 3 3 4 5 6 6 6
6 6 6 5 5 5 5 7 7 7 7 8 9 10 10 10 10 10 9 9 9 9 8 8 7 6 5 5 3 2 1 1 1 1 1 2 4 4 5 5 6 6 6
7 5 5 5 5 5 5 6 7 7 7 7 7 10 9 5 5 5 8 10 11 10 10 9 8 7 6 4 4 3 1 0 1 1 1 4 5 5 5 5 6 6 7
6 6 5 5 5 5 4 4 3 4 4 3 3 4 3 3 4 6 7 12 12 12 11 10 10 8 5 1 2 2 0 1 1 2 2 6 6 6 6 6 6 7 7
4 6 6 5 5 5 3 3 2 2 2 3 4 4 3 3 3 4 3 5 6 8 5 6 5 3 2 2 1 1 2 2 2 2 3 7 7 7 7 7 7 7 7
5 6 6 6 5 5 4 3 3 2 2 3 3 4 2 2 3 3 3 3 3 3 3 3 3 4 3 3 3 3 3 2 2 2 3 7 7 7 7 8 7 8 7
5 6 6 6 5 5 4 4 4 3 3 3 3 3 3 2 3 3 3 3 4 3 4 4 4 4 4 4 4 4 4 4 4 3 3 7 7 8 8 9 8 8 8
5 6 6 6 5 5 4 4 4 4 3 3 3 3 3 3 3 3 3 3 4 3 4 4 5 4 4 3 4 4 5 4 4 4 4 4 7 8 8 9 9 9 9
5 6 6 7 6 6 6 5 4 4 4 3 3 4 4 3 3 3 3 3 3 3 4 3 4 3 3 3 4 4 4 5 5 5 5 3 3 7 8 10 10 10 10
5 6 6 7 7 7 6 5 4 4 4 3 3 3 4 4 3 3 3 3 3 3 3 3 3 3 3 3 2 3 3 3 5 5 4 4 3 3 6 9 9 10 10
5 5 6 7 7 7 7 5 5 4 4 3 3 3 4 4 4 3 3 3 3 3 3 4 3 3 3 3 2 2 2 2 3 4 5 5 4 4 3 5 8 9 9
5 5 6 7 7 7 5 4 4 4 3 3 3 3 4 4 4 3 3 3 3 3 3 3 3 3 3 3 2 1 1 1 2 3 4 4 4 5 4 4 4 5 8
5 6 6 7 7 6 4 4 4 4 4 4 3 4 4 4 3 3 3 2 3 3 4 4 3 3 3 3 2 0 1 0 1 2 2 3 4 4 4 4 4 3 3
6 6 6 6 7 6 4 4 3 4 4 3 3 4 4 3 3 3 3 2 3 2 3 4 4 3 2 3 3 2 0 1 2 2 2 3 4 3 4 6 5 5 4
6 7 6 7 7 7 6 4 4 3 3 3 4 4 4 4 4 3 3 2 2 3 3 4 4 5 3 3 3 4 3 4 2 1 2 3 3 3 4 4 5 5 5
7 6 6 7 7 7 6 5 5 4 4 4 4 4 5 4 4 3 3 2 2 2 3 4 4 4 4 4 3 2 2 3 3 1 1 1 3 3 4 4 4 5 5
6 6 6 6 6 6 6 5 5 4 4 4 4 5 4 4 4 3 2 2 2 2 3 3 3 4 4 4 4 3 2 1 1 2 2 1 1 2 3 3 3 3 4
6 6 6 6 7 7 7 6 5 6 6 6 6 5 4 3 3 4 3 2 2 2 2 3 3 4 4 4 4 3 3 3 3 3 2 2 2 1 1 2 3 3 3
Wind_Direction
195 198 179 156 154 155 153 151 149 145 145 144 143 142 140 140 140 139 137 134 129 125 120 110 103 96 91 86 82 78 76 76 80 85 86 85 85 91 98 103 105 101 108
158 171 172 164 160 160 158 157 158 156 155 153 152 151 147 147 146 145 147 146 141 135 128 122 113 103 95 89 82 75 69 71 83 92 87 79 81 92 101 106 108 113 113
136 156 166 169 168 168 167 166 165 166 164 162 160 159 156 159 157 155 155 156 156 153 146 138 128 115 104 92 79 68 59 64 89 98 87 62 70 94 101 111 112 116 118
142 152 168 177 177 176 177 178 177 177 175 172 171 170 169 168 170 172 173 171 170 167 162 157 145 127 110 92 75 61 53 64 93 102 84 60 63 101 104 111 116 121 122
145 153 184 185 185 185 185 186 188 188 188 188 188 187 184 184 185 187 186 185 185 181 177 174 166 153 122 88 66 56 51 71 96 92 88 67 48 104 111 115 117 119 122
103 131 205 193 194 196 195 196 199 200 201 201 200 198 197 198 200 201 198 195 197 198 196 194 197 193 179 90 54 48 49 84 98 91 90 78 56 115 119 118 121 126 130
41 25 360 254 222 217 214 212 212 212 213 213 212 210 210 212 214 213 209 207 205 206 208 205 214 220 229 260 18 35 49 94 114 113 113 96 185 133 123 123 123 127 131
46 27 15 359 345 308 263 242 230 226 225 224 223 221 220 222 222 221 220 217 217 215 214 213 222 234 244 262 308 6 35 60 127 135 151 193 199 140 129 130 127 126 129
39 29 12 355 343 330 313 289 262 245 239 234 234 231 228 228 229 228 229 226 224 224 224 222 226 239 249 258 275 307 357 71 124 155 181 204 207 159 138 129 128 129 128
36 30 14 3 358 345 327 312 302 284 266 253 245 242 239 237 236 235 234 233 230 230 233 231 232 239 246 253 263 279 322 71 155 185 198 222 208 173 151 140 135 131 129
22 16 9 0 354 346 330 329 326 311 297 285 265 256 248 241 243 243 242 240 239 238 238 236 236 239 244 254 265 275 315 224 225 216 216 227 210 184 163 151 144 139 135
5 357 360 352 345 340 336 334 323 319 311 305 292 274 254 233 232 238 244 248 248 246 243 239 237 239 240 227 275 293 296 254 242 232 230 227 213 196 177 163 155 147 142
353 354 351 345 339 336 328 322 317 311 304 298 294 283 265 247 242 243 237 253 254 254 246 241 238 216 196 192 208 225 236 239 237 240 237 230 218 205 189 175 165 158 152
356 347 340 341 341 336 331 320 310 314 312 304 295 291 276 253 239 233 235 237 235 233 228 218 207 204 201 203 210 223 233 230 230 231 238 235 225 212 200 186 176 170 164
350 343 336 334 336 332 329 322 327 313 304 299 297 292 283 263 254 243 236 234 232 224 220 214 207 206 207 208 213 220 228 230 230 227 233 237 229 218 207 195 186 178 172
341 338 333 330 333 332 327 317 309 306 301 296 290 285 282 262 255 248 243 237 232 225 222 216 212 208 208 203 216 219 227 228 227 221 217 233 230 220 213 204 195 188 182
330 329 330 330 340 332 323 313 310 300 297 290 285 282 276 262 252 249 243 239 232 222 219 214 211 198 206 207 217 221 222 225 221 216 209 207 219 222 214 208 202 196 191
329 327 326 337 337 329 322 311 304 302 298 291 289 287 283 273 259 251 246 243 233 222 212 207 200 193 206 205 210 221 221 220 218 212 203 200 199 208 216 213 205 201 198
326 324 326 329 329 326 321 312 305 302 298 295 293 290 286 280 269 251 247 249 236 224 217 219 202 187 204 206 207 215 221 224 219 213 203 201 198 196 198 215 211 203 201
321 323 325 326 327 325 320 319 315 313 309 301 293 291 292 283 277 261 247 245 232 220 217 210 198 190 198 192 206 207 213 233 217 215 210 201 198 200 196 198 203 210 207
325 331 328 328 327 332 330 328 322 318 313 311 303 300 300 295 286 267 262 246 228 221 219 208 187 187 194 158 136 104 352 308 227 222 206 200 204 202 193 195 190 191 205
322 325 325 325 324 328 322 307 288 288 290 288 299 314 311 309 299 280 253 244 230 225 217 203 182 169 183 167 152 132 184 299 268 226 197 208 209 191 199 204 193 192 193
324 323 325 322 324 325 325 318 315 311 308 321 325 323 318 314 305 292 270 246 233 217 217 209 196 181 185 188 176 158 164 206 223 259 216 210 201 195 202 197 199 197 195
316 320 322 323 325 326 331 335 334 328 316 305 307 306 313 316 314 309 301 281 252 233 225 218 205 193 181 185 187 188 164 160 166 193 253 207 194 200 200 203 202 198 196
316 324 325 328 328 331 339 340 336 328 308 305 310 316 321 322 323 322 316 307 278 249 236 226 208 194 189 184 177 168 162 165 167 156 198 208 204 210 199 199 195 195 196
321 330 333 336 331 337 343 345 346 339 334 335 334 331 328 323 327 334 326 317 294 269 247 232 213 201 200 191 181 174 167 173 182 171 179 190 206 218 195 191 199 200 194